COSMOS 1375 DEB

Satellite information

Favourite Embed

Satellite Type and Status

DEBRISIN ORBIT

Key statistics

Satellite COSMOS 1375 DEB at a glance.

Uptime

15852

Days in orbit

Revolutions

≈ 13.8

Per day

Orbit

LEO

Low Earth Orbit

Inclination

65.8

Latest

Satellite identification and parameters

Extended collection of information and parameters for COSMOS 1375 DEB.

Object identification

Identified? True

Debris? True

Object name: COSMOS 1375 DEB

International designator: 1982-055G

Object number (NORAD): 16205

Object ID (CCSDS): 16205

Country: COMMONWEALTH OF INDEPENDENT STATES (CIS)

Current information (Y/N): Y

RCS size: MEDIUM

Orbital parameters

Period: 104.341 minutes

Inclination: 65.8276 deg

SMA: 7341.683 km

Apoapsis: 1008.659 km

Periapsis: 918.437 km

RAAN: 16.8074 deg

Eccentricy: 0.0061445

Argument of periapsis: 184.5534 deg

Mean anomaly: 326.631 deg

Mean motion: 13.8009616 rev/day

Mean motion (dot): 0.00001539 rev/day2

B* drag term: 0.0015344203 1/REarth

Two-line elements (TLE)

Creation date: Oct. 30, 2025, 3:32 a.m.

Reference frame: TEME

Reference center: EARTH

Epoch: Oct. 29, 2025, 2:45 p.m. UTC

TLE line 0: 0 COSMOS 1375 DEB

TLE line 1: 1 16205U 82055G 25302.61500988 .00001539 00000-0 15344-2 0 9990

TLE line 2: 2 16205 65.8276 16.8074 0061445 184.5534 326.6310 13.80096160 6029

Live tracking on map

Real-time ground track for satellite COSMOS 1375 DEB.

In-orbit conjunctions

A list of the most updated potential collisions computed for object COSMOS 1375 DEB.

Target Orbit TCA Probability of collision Miss distance Type
P 76-5 SSO 2025-09-14 03:17:18 0.0001832475 539.0 (m) PAYLOAD

Associated space launch

ASAT target satellite

COSMOS 1375 DEB was lifted into orbit during the mission ‘Kosmos-3M | DS-P1-M 16’, on board a Kosmos-3M space rocket.

The launch took place on June 6, 1982, 5:10 p.m. from 132/2.

For more information about the launch, click the button.

Launch to space Kosmos-3M | DS-P1-M 16
Kosmos-3M | DS-P1-M 16

Agency: N/A

Status: Launch Successful

Launch date: June 6, 1982, 5:10 p.m. UTC

Rocket: Kosmos-3M

Launch pad: 132/2

Location: Plesetsk Cosmodrome, Russian Federation

...

Latest news about this satellite

There are no fresh news available about this satellite. Check back as we update our databases every day.


Newsletter sign-up

Weekly statistics, charts and insights to help you stay on top of the space industry.